Location: Bernay
(48.6766°N, 2.9386°E)
Time: 09:39:38
(UTC+00:00)

Cosmos 968 Rocket - Pass Details

Date: 12 January 2026
Orbit: 737 x 764 km, 74.0° (Epoch: 16 February)

Event Time Altitude Azimuth Distance (km) Brightness Sun altitude
Rises 18:41:59 0° 332° (NNW) 3,214 7.0 -23.4°
Reaches altitude 10° 18:44:26 10° 326° (NNW) 2,280 6.3 -23.8°
Maximum altitude 18:49:20 45° 255° (WSW) 1,007 4.5 -24.6°
Drops below altitude 10° 18:54:10 10° 183° (S) 2,247 6.0 -25.4°
Sets 18:56:35 0° 178° (S) 3,163 6.7 -25.8°
